Hourly Data Report for July 18, 2009

PITT MEADOWS CS
BRITISH COLUMBIA

49°12'29.964" N
122°41'24.076" W
5.00 m
1106178
71775
WMM

Download Data

Hourly Data (July 2009)
Hourly Data Report for July 18, 2009
TIME
LST
Temp Definition
°C
Dew Point Definition
°C
Rel Hum Definition
%
Precip. Amount Definition
mm

Wind Dir Definition
10's deg

Wind Spd Definition
km/h
Visibility Definition
km
Stn Press Definition
kPa
Hmdx Definition


Wind Chill Definition


Weather Definition


00:00 17.9 14.0 78   10 6   101.71     LegendNANA
01:00 16.3 13.6 84   8 4   101.73     LegendNANA
02:00 16.9 12.8 77   10 7   101.73     LegendNANA
03:00 14.1 11.8 86   9 2   101.76     LegendNANA
04:00 14.1 12.0 87   10 4   101.78     LegendNANA
05:00 14.4 12.0 85   14 2   101.80     LegendNANA
06:00 16.4 12.3 77   13 7   101.84     LegendNANA
07:00 17.3 11.1 67   15 6   101.87     LegendNANA
08:00 19.2 12.0 63   14 7   101.88     LegendNANA
09:00 20.3 12.0 59   16 6   101.88     LegendNANA
10:00 22.1 11.8 52   23 4   101.87     LegendNANA
11:00 24.2 11.2 44   12 4   101.85 26   LegendNANA
12:00 24.7 11.7 44   22 11   101.83 27   LegendNANA
13:00 25.3 11.2 41   18 7   101.83 27   LegendNANA
14:00 26.4 10.2 36   24 7   101.82 28   LegendNANA
15:00 26.7 10.0 35   24 6   101.80 28   LegendNANA
16:00 26.0 11.1 39   25 11   101.78 28   LegendNANA
17:00 25.7 10.8 39   19 9   101.74 27   LegendNANA
18:00 24.8 11.8 44   21 7   101.74 27   LegendNANA
19:00 23.4 11.2 46   22 6   101.75 25   LegendNANA
20:00 21.4 10.8 51   21 6   101.79     LegendNANA
21:00 18.7 10.8 60   19 6   101.86     LegendNANA
22:00 16.6 10.0 65   8 6   101.88     LegendNANA
23:00 14.8 9.5 71   10 4   101.92     LegendNANA

Notes on Data Quality.

Legend

  • E = Estimated
  • M = Missing
  • NA = Not Available*
  • [empty] = Indicates an unobserved value
Date modified: